Lapse_Rate
5.9 5.6 5.9 7.9 6.5 6.5 6.5 6.5 6.5 6.5 6.5 7.4 7.7 7.0 6.6 7.1 6.5 6.5 5.8 8.5 9.5 9.5 9.1 5.9 6.0 6.0 6.3 7.2 6.1 5.5 5.5 5.4 5.2 5.2 5.1 4.9 5.0 5.4 5.9 5.9 5.8 5.3 4.9 4.7 4.5 4.5 4.9 5.1 5.3
5.9 6.4 7.6 7.7 6.5 6.5 6.5 6.5 6.5 6.5 7.1 7.8 7.6 7.4 6.9 6.5 8.2 8.4 8.5 6.9 9.8 9.9 9.5 8.4 6.3 6.1 6.2 6.9 5.7 5.4 5.1 5.3 5.2 5.0 4.8 4.6 4.7 5.0 5.1 4.8 4.6 4.6 4.3 4.2 4.2 4.5 4.8 5.2 5.8
6.0 6.0 7.7 6.5 6.5 6.5 6.5 6.5 6.5 6.9 7.5 7.5 7.1 7.9 7.5 7.1 8.4 8.7 9.3 8.6 9.5 9.9 9.6 7.8 6.2 6.2 6.7 6.0 5.1 4.9 4.9 5.2 5.3 4.8 4.6 4.6 4.8 4.7 4.5 4.1 3.9 3.7 3.8 4.0 4.2 4.6 4.8 5.5 6.0
7.6 8.3 7.9 6.5 6.5 6.5 6.5 6.5 6.8 6.7 7.3 7.8 7.7 6.5 8.0 8.8 8.2 8.2 9.1 8.4 9.6 9.9 9.6 6.6 5.8 6.1 6.5 5.7 5.1 5.0 5.1 5.0 4.7 4.5 4.6 4.8 4.9 4.2 4.1 3.8 3.7 3.6 3.5 3.6 4.1 4.4 5.1 5.9 7.4
7.5 7.9 6.5 6.5 6.5 6.5 6.5 7.0 7.2 6.5 6.9 7.2 7.6 6.7 7.2 8.6 8.3 6.9 6.7 9.1 9.6 9.4 9.6 7.2 5.7 5.7 6.2 6.1 5.3 5.1 5.1 4.8 4.3 4.5 5.0 4.7 4.5 4.0 3.7 3.7 3.6 3.6 3.9 3.9 4.8 5.3 6.1 7.3 6.8
7.3 7.5 6.5 6.5 6.5 6.5 6.5 7.3 7.2 6.8 7.1 7.3 7.2 7.2 7.4 9.1 8.6 7.3 6.4 7.7 9.7 7.1 9.2 8.2 5.8 5.6 6.2 6.2 5.4 5.1 4.9 4.4 4.5 4.6 4.8 5.1 4.0 4.0 3.8 3.8 3.9 4.2 4.6 4.9 5.2 5.7 6.3 6.2 6.3
6.8 6.5 6.5 6.5 6.5 6.5 6.5 7.6 6.8 6.8 7.0 6.9 8.0 6.5 7.8 8.6 8.8 8.5 5.9 7.3 8.1 6.6 8.3 7.4 6.3 5.8 5.7 6.3 5.4 5.1 4.7 4.4 4.5 4.5 4.3 4.1 4.0 4.1 4.1 4.2 4.5 4.6 5.0 5.2 5.4 6.0 6.5 6.2 6.2
7.6 6.5 6.5 6.5 6.5 6.5 6.8 7.3 7.6 7.2 6.8 8.4 8.3 6.6 6.8 8.6 9.1 9.2 6.6 5.8 7.3 7.0 7.7 6.8 6.0 5.9 6.4 6.7 5.8 5.1 4.8 5.0 5.0 5.0 3.7 3.5 4.0 4.3 4.3 4.4 4.6 4.8 4.9 5.3 5.6 6.3 6.4 6.0 5.6
7.9 6.5 6.5 6.5 6.5 6.5 7.2 6.6 7.7 8.2 7.7 7.9 8.2 8.1 8.6 9.1 9.1 8.8 7.3 5.6 5.9 6.4 8.0 6.0 5.8 5.9 6.4 7.3 7.0 5.8 5.3 5.7 6.0 4.9 3.1 3.7 5.8 5.7 5.2 5.7 4.4 4.7 5.0 5.2 5.6 6.0 5.6 5.2 5.0
6.8 6.5 6.5 6.6 6.6 6.5 7.0 7.0 7.3 7.1 7.2 7.3 7.8 8.5 8.9 9.1 8.9 8.5 7.9 5.0 5.7 6.2 6.7 5.3 6.1 5.7 6.7 7.6 8.0 9.1 7.5 8.6 8.9 7.2 5.0 7.3 7.7 6.8 7.5 4.8 4.3 4.7 4.6 4.8 5.1 5.0 5.0 7.0 7.5
6.9 6.5 6.5 6.7 7.2 7.3 7.0 7.1 7.6 7.0 6.5 7.2 7.3 8.0 8.5 8.5 8.5 8.4 8.5 6.7 6.0 5.9 4.4 4.8 5.3 5.3 6.3 7.8 8.4 9.5 8.0 9.5 9.2 7.4 6.3 6.9 5.6 4.9 5.9 5.4 5.6 5.2 5.0 5.5 5.6 5.4 7.2 8.2 9.0
6.5 6.9 6.9 7.0 7.4 7.2 6.7 7.5 7.0 7.3 7.4 8.3 8.3 8.5 8.5 8.3 8.3 8.3 7.9 8.1 6.1 4.7 5.1 4.3 4.0 4.6 5.6 6.9 8.8 9.5 7.6 9.3 8.6 6.6 6.0 5.8 5.7 5.6 6.4 7.3 6.5 5.9 6.1 6.2 7.0 7.5 7.1 7.4 8.6
6.5 6.6 7.2 7.4 7.4 7.4 7.5 6.9 6.8 7.3 8.1 8.5 8.4 8.3 8.3 8.4 8.4 8.7 8.8 8.2 7.2 4.4 4.6 4.4 4.5 3.9 4.7 6.0 7.8 9.0 8.8 9.1 6.7 5.7 5.5 5.9 5.6 5.7 6.0 6.3 6.2 6.2 6.4 6.7 6.8 7.5 7.5 7.7 8.3
7.1 7.0 7.1 7.3 7.2 7.3 6.7 6.8 7.1 7.3 8.0 8.0 8.1 8.1 8.4 8.4 8.5 8.5 8.6 8.7 8.8 6.4 5.2 4.9 4.0 3.8 4.4 5.1 7.1 6.8 8.5 8.3 6.6 5.3 5.1 5.5 5.9 5.7 6.1 6.2 6.4 6.2 6.5 6.7 7.0 7.4 7.5 7.3 7.8
7.2 6.5 6.5 6.7 7.0 6.6 7.3 6.5 6.5 7.6 7.9 7.6 7.9 8.1 8.2 8.4 8.7 8.5 8.4 8.2 9.0 9.0 7.5 5.3 3.9 3.8 4.0 4.6 6.1 6.8 5.5 5.6 5.9 5.4 5.1 5.7 5.9 5.9 5.7 6.1 6.4 6.2 6.2 6.0 5.9 6.4 6.6 6.7 7.0
6.5 6.5 6.5 6.5 6.7 6.9 6.8 6.5 6.5 7.7 7.7 7.5 7.8 8.0 8.1 8.3 8.6 8.8 8.9 8.2 7.7 8.8 8.8 6.2 5.4 4.1 3.8 4.1 4.3 7.3 5.6 5.6 5.8 5.9 5.5 5.3 5.8 6.2 6.3 6.2 6.2 5.3 5.5 6.3 6.2 6.4 7.0 7.1 7.1
6.5 6.5 6.5 6.5 6.7 6.5 6.5 6.5 6.4 7.7 7.5 7.3 7.6 7.9 8.0 8.1 8.5 8.7 8.7 8.2 7.5 7.6 9.0 7.3 6.2 4.4 3.8 4.6 3.8 7.1 5.2 6.0 6.1 5.9 5.8 5.4 5.6 5.9 6.6 6.5 5.6 5.5 5.8 6.7 6.7 6.5 6.8 6.7 7.0
6.5 6.5 6.5 6.5 6.5 6.5 6.5 6.5 6.5 7.3 7.3 7.2 7.5 7.8 7.9 8.0 8.1 8.6 8.9 8.9 6.9 7.6 7.1 9.1 6.3 5.4 4.2 3.9 4.8 4.9 6.2 6.4 5.8 5.6 5.4 5.4 5.7 5.7 6.4 6.1 5.7 5.8 6.0 6.4 6.6 6.2 6.8 6.9 6.5
6.5 6.5 6.5 6.5 6.5 6.5 6.5 6.5 6.5 6.9 7.1 7.0 7.3 7.6 7.8 8.0 8.5 8.5 7.3 7.7 6.7 7.3 7.4 7.7 6.5 4.4 2.6 2.2 2.9 4.2 7.1 6.3 5.8 5.9 5.4 5.5 5.6 5.5 6.0 6.0 5.8 5.9 6.4 6.3 6.4 5.8 5.1 5.4 6.1
6.5 6.5 6.5 6.5 6.5 6.5 6.5 6.5 6.5 6.5 6.7 7.1 7.2 7.5 7.7 8.0 8.3 8.4 8.5 7.5 7.2 7.3 7.8 8.1 5.9 3.7 3.5 3.1 0.9 2.3 3.3 7.9 5.1 4.8 5.2 5.2 5.2 5.2 5.4 5.8 5.8 6.1 6.0 5.7 5.4 5.4 5.5 5.0 6.0
6.5 6.5 6.5 6.5 6.5 6.5 6.5 6.5 6.5 6.5 6.9 7.1 7.4 7.6 7.9 8.0 8.1 8.2 8.3 8.2 7.1 7.0 8.9 6.7 5.2 4.4 2.7 3.0 2.2 2.4 2.0 4.3 5.4 5.6 6.0 5.5 5.6 5.0 5.5 5.4 5.8 5.9 6.2 5.7 5.8 5.6 5.2 4.4 4.2
6.5 6.5 6.5 6.5 6.5 6.5 6.5 6.5 6.5 6.5 6.5 6.5 7.1 7.5 7.7 7.9 8.2 8.3 8.4 8.5 8.4 6.9 8.8 8.6 5.0 4.5 3.2 2.8 3.0 2.8 2.8 4.9 6.5 5.9 4.9 5.1 5.8 5.6 5.6 5.6 5.8 5.9 6.0 5.7 5.9 5.9 5.7 5.2 4.1
6.5 6.5 6.5 6.5 6.5 6.5 6.5 6.5 6.5 6.5 6.5 6.5 6.6 7.4 7.7 7.9 8.2 8.3 8.3 8.5 8.6 6.7 8.8 8.3 4.9 3.3 2.7 2.8 3.9 3.4 4.5 4.4 4.9 5.5 4.9 5.4 5.8 5.9 5.6 5.6 5.4 5.3 5.4 5.3 5.3 4.8 5.2 5.7 4.8
6.5 6.5 6.5 6.5 6.5 6.5 6.5 6.5 6.5 6.5 6.5 6.5 6.7 7.4 7.7 7.9 8.0 8.1 8.4 8.6 7.5 7.9 7.8 6.4 5.0 3.7 3.5 3.9 4.5 4.1 4.4 4.9 5.5 6.1 5.8 6.0 6.3 6.3 6.2 5.6 5.5 5.1 5.0 4.9 4.8 4.5 4.7 4.4 4.5
6.5 6.5 6.5 6.5 6.5 6.5 6.5 6.5 6.5 6.5 6.5 6.5 6.5 7.3 7.7 8.0 7.8 7.5 8.0 8.4 8.5 8.4 6.9 5.9 4.5 4.1 4.6 4.4 4.8 5.1 4.6 4.5 6.1 6.2 5.5 5.7 5.4 6.1 6.3 6.3 5.8 5.3 4.4 3.8 4.0 4.2 4.0 4.3 4.1
6.5 6.5 6.5 6.5 6.5 6.5 6.5 6.5 6.5 6.5 6.8 7.2 7.3 7.5 7.8 7.9 8.0 7.2 7.5 6.4 7.8 7.4 7.1 5.9 5.1 4.0 4.3 4.4 5.1 5.2 4.3 4.8 5.5 5.3 5.9 6.4 5.9 5.8 6.2 5.9 5.2 4.5 3.9 3.6 3.6 3.4 3.1 3.8 3.8
6.5 6.5 6.5 6.5 6.5 6.5 6.5 6.5 6.5 6.5 6.5 6.7 6.9 7.3 7.5 7.8 8.0 7.0 7.4 6.3 6.0 6.5 6.6 6.0 5.1 4.5 4.5 4.8 5.0 6.5 5.3 5.4 5.1 4.5 4.5 4.0 4.0 3.7 3.3 3.3 3.1 2.6 2.8 3.4 3.5 3.4 2.9 3.6 2.9
6.5 6.5 6.5 6.5 6.5 6.5 6.5 6.5 6.5 6.5 6.5 6.5 6.5 7.0 7.4 7.8 8.0 7.0 7.1 6.9 6.4 6.1 6.2 5.7 5.2 4.8 5.0 4.8 4.1 4.3 6.0 4.8 5.2 5.1 5.8 5.0 4.3 3.3 2.1 2.2 2.1 2.8 2.5 2.0 2.6 2.9 2.8 2.8 3.1
6.5 6.5 6.5 6.5 6.5 6.5 6.5 6.5 6.5 6.5 6.5 6.5 6.5 7.2 7.5 7.7 7.9 7.5 6.6 6.7 6.3 6.4 6.2 5.5 5.3 5.0 5.2 5.0 4.6 4.6 5.7 5.5 5.8 5.3 5.6 4.6 3.4 3.7 3.2 2.4 1.2 1.9 3.3 2.7 2.0 1.9 2.7 3.5 4.2
6.5 6.5 6.5 6.5 6.5 6.5 6.5 6.5 6.5 6.5 6.5 6.8 6.9 7.3 7.7 7.9 7.8 7.7 6.0 6.2 6.5 6.3 6.2 6.0 5.6 5.2 5.3 5.6 5.8 5.8 5.7 5.4 5.6 5.2 5.4 4.0 3.2 3.3 3.1 2.4 1.9 1.7 1.3 1.8 2.9 3.8 3.7 3.9 3.5
Wind_Speed
13 9 3 4 5 5 12 6 4 3 4 4 9 7 5 7 4 3 6 8 7 19 26 27 24 25 23 24 20 18 17 17 17 17 16 15 14 13 13 13 13 13 13 13 12 12 11 11 10
11 4 3 2 6 9 10 3 6 3 9 11 5 5 7 2 6 3 3 1 11 18 24 26 24 24 23 23 19 18 18 17 17 16 16 16 15 15 14 14 14 14 13 12 12 12 13 11 13
5 3 3 4 5 12 8 3 4 7 4 10 4 4 5 5 10 8 5 2 13 17 23 23 24 23 22 22 20 19 19 18 17 17 16 16 16 15 14 15 14 14 13 12 12 12 13 14 15
2 3 2 6 9 3 2 3 7 7 1 8 9 2 2 11 10 12 12 7 15 17 22 24 26 24 23 22 20 20 20 20 18 17 17 17 16 16 15 15 14 14 14 13 13 13 13 16 17
1 2 4 4 6 2 2 6 4 6 5 7 9 4 5 5 12 14 6 8 16 15 20 24 25 25 25 22 20 20 20 19 19 18 17 17 16 15 16 15 14 14 13 14 14 14 15 16 17
2 2 4 7 6 2 1 7 3 6 4 7 9 10 2 2 18 15 7 7 14 13 15 21 24 25 25 22 21 20 20 20 19 19 18 17 17 16 15 15 15 14 14 14 15 15 17 17 16
0 2 1 1 2 3 1 8 4 6 8 3 9 7 5 4 18 17 4 7 7 11 14 15 23 24 24 22 21 20 20 20 20 19 19 17 17 16 16 16 15 15 16 16 15 16 17 17 16
1 1 3 0 1 1 2 9 5 7 8 8 3 4 4 11 17 15 3 5 9 9 11 14 17 20 21 21 20 20 19 18 18 18 18 17 16 15 17 16 16 15 16 15 15 16 18 16 16
1 2 1 1 2 3 5 8 5 7 12 9 8 11 13 15 13 11 8 6 7 11 16 10 14 16 19 21 21 19 19 18 17 17 18 19 17 16 18 16 16 16 16 16 15 18 18 17 16
3 1 2 0 3 8 12 10 13 9 13 15 14 10 12 15 11 11 8 7 10 11 14 10 15 12 16 17 20 20 18 19 19 17 20 15 15 16 16 15 15 17 17 16 16 16 17 14 13
3 2 0 1 5 8 11 15 10 13 12 9 13 14 14 16 12 10 11 5 7 12 6 10 14 13 12 12 17 15 14 17 16 18 18 15 15 16 16 16 16 16 17 15 15 14 10 11 11
2 1 2 2 4 9 13 14 12 16 23 17 15 15 14 14 13 9 11 12 8 5 11 12 13 13 12 14 14 15 11 15 15 18 18 15 12 13 13 11 12 13 11 13 12 10 11 11 11
2 4 5 8 12 12 10 12 17 22 21 19 11 9 14 12 14 11 11 12 12 7 9 12 16 16 13 13 13 13 12 13 15 16 17 15 12 8 12 11 12 12 12 12 11 12 11 12 11
7 10 12 7 7 6 10 12 8 7 4 10 12 15 16 16 15 17 14 14 13 12 10 13 15 16 16 13 16 13 15 16 15 15 16 15 13 12 10 9 9 10 12 12 12 11 10 9 11
5 7 5 1 4 5 12 12 10 13 8 13 20 19 17 18 19 19 15 14 13 13 12 16 14 17 17 17 16 14 16 16 13 14 17 16 13 13 12 8 7 9 11 12 13 12 11 8 10
4 3 7 2 4 1 7 11 11 10 18 20 22 19 18 19 18 18 17 15 14 13 12 12 12 12 16 17 14 13 16 15 14 15 16 16 14 13 11 7 7 11 11 11 9 8 8 8 8
2 6 9 7 4 5 3 21 17 21 14 15 16 17 16 16 15 16 17 16 15 14 13 12 16 12 13 13 13 14 17 12 15 16 15 16 15 13 10 8 10 12 10 8 7 8 8 8 8
10 7 9 12 10 10 17 20 19 15 11 12 12 12 12 13 14 14 14 14 14 13 12 14 12 13 10 3 7 10 11 11 15 14 14 16 14 13 11 9 10 11 7 7 7 9 8 8 8
7 10 15 15 6 15 13 19 18 14 9 9 11 13 13 13 13 11 11 12 13 13 13 15 15 13 8 9 4 7 3 11 9 9 15 16 15 13 11 9 9 9 8 8 8 8 11 8 9
7 12 13 8 1 12 15 21 12 6 4 7 11 14 16 16 15 14 11 9 11 13 14 11 13 13 13 9 9 6 5 2 7 7 11 13 16 15 12 9 7 7 6 9 10 10 8 6 4
8 9 11 12 19 6 12 8 6 2 6 5 8 9 12 15 17 17 14 11 11 13 15 13 14 14 13 15 12 9 10 2 3 7 8 8 14 13 12 11 8 6 6 6 8 8 9 7 3
9 1 9 14 13 5 8 6 9 5 9 7 14 15 16 18 17 15 17 15 11 13 14 16 14 13 12 14 13 19 11 5 3 4 6 6 11 12 11 11 10 7 5 6 5 5 5 6 6
5 8 12 7 5 8 2 4 5 3 7 13 13 16 17 16 19 20 19 18 13 12 13 14 14 14 14 14 15 15 14 6 2 4 9 10 7 12 12 11 11 7 5 5 4 5 5 4 6
11 8 5 2 2 3 3 5 8 4 9 10 12 16 17 18 19 17 17 11 6 10 11 11 14 16 16 16 20 19 20 14 9 8 7 7 7 7 10 11 10 9 8 6 5 5 6 6 6
6 7 3 3 2 4 4 8 11 12 7 8 11 16 17 17 16 14 16 11 1 10 14 14 15 14 16 19 19 19 19 16 13 12 8 9 7 7 8 10 9 7 10 10 9 7 7 7 7
4 5 2 5 6 11 8 6 4 7 8 9 7 13 16 17 15 13 14 12 3 8 13 14 16 17 17 19 19 17 18 12 11 12 11 8 8 9 11 11 13 13 13 12 11 7 6 7 7
2 1 1 4 4 5 4 7 15 3 7 11 9 17 18 16 15 13 11 9 7 4 7 12 14 15 17 19 18 17 15 14 15 15 13 11 12 11 14 15 11 15 15 13 10 6 7 8 7
3 1 2 1 6 7 6 10 9 11 15 12 14 19 14 13 14 12 10 7 5 3 6 9 13 15 14 16 15 15 17 16 11 12 13 13 12 11 13 14 14 10 10 15 11 8 7 8 5
3 3 3 3 2 4 7 7 5 9 9 12 17 15 12 11 12 10 9 6 4 2 4 9 10 13 14 14 13 15 15 13 12 10 8 9 12 14 14 13 15 13 12 9 9 8 8 9 8
3 2 3 3 1 5 6 9 2 4 8 14 15 13 9 9 9 8 8 8 5 4 5 6 10 12 13 13 14 16 14 14 13 13 13 13 13 12 12 11 12 11 10 8 9 10 8 10 8
Wind_Direction
326 324 289 221 215 233 234 228 274 183 170 17 308 265 324 326 311 1 350 201 203 167 164 169 168 164 154 144 149 153 151 148 145 143 141 136 132 132 126 120 117 115 114 113 114 113 113 114 111
322 306 220 216 240 218 224 239 210 30 342 319 294 260 251 52 17 13 357 128 181 169 166 171 169 160 153 141 153 156 152 149 149 145 142 140 139 136 130 125 124 121 114 115 114 116 116 113 119
304 308 213 218 238 233 250 69 328 333 359 4 338 352 350 13 6 348 11 228 182 171 169 165 164 157 147 148 159 159 154 153 150 145 144 144 141 135 131 128 123 122 119 118 118 119 116 121 115
307 189 152 235 221 250 319 4 347 343 67 22 352 247 81 34 351 325 313 197 181 176 174 153 162 152 145 154 162 162 158 154 150 149 149 145 142 134 133 128 126 125 124 122 121 119 122 120 114
328 224 212 228 228 244 99 10 334 337 349 356 350 350 333 19 7 354 316 199 183 178 178 163 158 151 147 157 163 163 160 155 153 154 150 148 140 138 135 133 130 128 127 125 125 120 125 119 113
179 287 226 234 226 191 117 6 329 323 328 328 342 319 328 318 7 354 302 211 179 179 190 167 159 151 147 158 166 164 160 157 159 154 152 146 142 142 138 136 133 130 129 129 127 124 123 117 114
49 244 312 255 279 239 74 355 340 322 308 308 330 299 307 284 355 349 278 226 166 188 187 163 164 153 150 161 167 164 161 162 161 155 151 148 145 144 141 137 134 130 130 129 127 128 126 119 112
45 271 151 118 339 271 23 334 323 291 306 317 268 274 291 341 345 347 311 202 179 207 190 170 158 157 158 164 167 161 162 164 158 157 143 139 142 144 141 137 133 132 127 126 126 131 125 117 109
309 213 117 105 247 339 335 325 338 301 283 278 280 290 313 323 328 341 352 232 219 197 196 168 159 159 160 165 167 159 161 158 154 138 135 145 151 153 152 129 138 136 134 129 126 126 122 113 104
9 360 66 357 293 297 307 307 311 297 286 279 280 271 293 312 315 317 323 336 221 212 202 157 172 161 165 161 171 174 170 167 170 165 163 164 153 153 141 132 135 131 127 126 124 122 130 145 128
16 50 62 256 287 303 303 301 310 288 283 286 294 296 298 297 297 296 290 272 276 214 202 170 170 164 168 167 175 172 177 174 171 171 171 165 152 149 149 145 141 135 139 133 135 143 147 139 135
276 184 253 293 286 296 295 305 288 277 275 292 296 293 291 286 289 282 284 289 265 280 199 185 183 164 170 170 178 171 182 175 176 175 173 169 163 163 160 160 155 151 155 147 148 142 138 137 139
308 334 295 287 289 281 286 277 284 279 277 284 293 280 284 281 285 286 281 278 269 236 221 202 187 171 172 173 181 178 184 185 178 173 175 174 168 167 162 158 161 156 155 151 146 144 139 137 134
327 301 292 295 300 272 295 291 296 281 287 279 282 284 278 273 276 290 273 271 263 250 233 198 193 183 176 176 179 178 182 186 174 170 173 175 171 166 163 160 160 155 159 153 147 145 138 133 137
302 306 311 197 355 320 312 273 227 284 295 285 293 291 284 267 280 271 271 263 266 256 253 203 194 191 185 180 181 177 177 175 175 171 169 173 172 171 162 158 161 156 155 148 138 136 133 130 130
302 240 349 32 332 107 328 296 311 287 295 297 294 292 288 284 274 266 268 260 255 257 240 205 193 203 201 178 172 180 172 174 170 169 169 170 171 172 168 159 157 155 153 154 147 144 139 136 136
17 329 338 331 313 314 281 297 307 314 306 296 295 298 298 296 281 266 259 257 252 248 245 205 198 185 207 213 165 184 166 168 167 167 170 169 166 168 171 165 155 156 153 158 150 145 143 138 133
324 327 322 316 326 309 297 288 306 311 316 314 323 323 308 305 296 289 276 259 253 240 230 221 199 188 176 194 219 147 164 158 167 167 167 167 164 165 164 162 160 159 155 154 150 145 142 135 130
296 289 298 308 351 324 310 301 307 301 308 328 340 336 325 320 318 300 288 263 252 240 225 214 196 188 141 118 118 84 244 154 157 165 162 161 159 161 163 160 163 168 162 157 150 141 135 128 136
282 294 311 310 340 323 315 306 304 287 287 318 327 329 333 327 323 320 309 280 251 243 220 189 185 166 153 147 123 132 83 329 138 148 158 159 158 159 159 161 166 172 155 152 150 149 141 120 157
294 279 316 308 326 285 310 272 304 186 291 338 350 340 334 331 324 321 313 293 277 243 220 179 176 170 147 152 134 115 98 12 105 156 152 169 161 155 156 156 159 160 159 158 158 163 162 150 152
309 266 299 309 328 322 5 301 320 329 320 336 347 349 346 340 330 323 316 299 280 252 222 182 164 161 149 152 156 151 141 134 209 181 139 146 158 146 148 146 146 148 152 159 165 166 158 161 149
285 308 302 308 290 316 152 276 293 329 326 338 340 345 348 344 336 330 322 306 283 240 200 177 151 146 148 148 146 128 142 135 78 146 127 135 147 143 143 143 139 134 130 127 136 135 131 132 145
302 291 271 195 248 255 112 4 290 327 325 315 333 343 345 342 345 337 328 325 269 206 170 154 147 149 153 147 142 148 146 140 162 165 143 150 148 138 140 137 127 122 118 113 109 103 108 106 99
307 315 328 299 287 312 151 301 261 299 310 301 314 336 342 344 353 341 345 353 193 170 167 150 149 150 156 151 148 149 143 136 164 156 143 151 134 133 133 127 120 109 104 99 100 94 90 99 100
17 345 24 309 318 304 316 235 298 320 295 292 292 342 344 349 358 349 351 359 58 168 167 159 151 153 156 155 157 152 142 151 157 152 146 139 132 134 137 122 115 112 108 106 106 101 89 87 88
118 24 34 276 276 271 264 278 280 273 278 316 318 339 343 344 354 353 1 2 10 73 144 151 148 157 164 163 163 165 153 155 155 156 148 152 154 155 149 141 135 133 123 119 113 107 103 103 93
268 82 247 153 313 307 286 302 283 319 330 330 331 332 336 340 351 1 7 12 14 91 136 149 154 153 159 167 161 164 170 157 169 156 164 163 155 148 138 132 126 112 107 124 120 114 112 98 96
169 188 201 274 220 286 313 299 344 310 325 324 328 332 332 335 349 3 359 28 28 82 125 143 151 154 160 162 162 161 162 158 164 147 137 147 134 138 134 130 123 123 128 120 117 123 143 122 111
250 243 229 290 267 248 276 271 291 294 328 334 335 340 334 331 346 2 6 10 55 91 139 146 155 160 163 160 163 165 155 151 151 150 147 143 132 130 132 129 126 122 125 132 147 135 123 126 119